Lethbridge County Airport
CYQL : now visible

Airfield :











YOU CAN JOIN US ON...

 
LOGIN :

Register | Disclaimer

   EN    FR    IT 

 









Legend :    VFR   Marginal VFR   IFR   Intensive IFR   Very Intensive IFR
Visi :
Ceiling :
>= 8 km
>= 3000ft
5 to 8 km
1000 to 3000 ft
1500m to 5 km
500 to 1000 ft
800 to 1500m
200 to 500 ft
< 800m
< 200 ft
Symbols :   Thunderstorms  Fog  Heavy snow  Heavy precipitations  Wind > 20 kt






- Airport Elevation : 3047 ft
- IATA code : YQL


CYQL - Lethbridge County

CURRENT METAR :
  • 190700Z AUTO 22008KT 9SM CLR M07/M09 A3037 RMK SLP332

EXPIRED METARs :
  • 190600Z AUTO 23009KT 9SM CLR M06/M08 A3038 RMK SLP333
  • 190500Z 24008KT 20SM FEW090 M07/M08 A3038 RMK AC2 LAST STFD OBS/NXT 191300Z SLP336

TAF TAF CYQL
Valid from the 19 at 06:00 until the 19 at 18:00 UTC


190538Z 1906/1918 24008KT P6SM FEW090
BECMG 1910/1912 24015KT
FM191500 24020KT P6SM SCT240
BECMG 1916/1918 25030G40KT RMK FCST BASED ON AUTO OBS. NXT FCST BY 191200Z
CZEG FIR / North America



MET'MAP, your aeronautical weather chart ! - Copyright ORBIFLY December 2007 - Disclaimer

ORBIFLY MET'MAP TEAM :

Programming & Development : Alexandra Zaïnal
Concept & original design : Baudouin d'Aumeries
Assistance for programming : Marc-Olivier Méhu
Technical & hardware support : Manuel Goepfert

Contact : metmap@orbifly.com




SOURCES & CREDITS :

   NOAA       Earth
Advisory